Free Severe Weather Alerts by Email and Text Message   

 
Follow iAlert.com on twitter @ialertcom
Search For Active Alerts in Your Area  
  Hi Guest:  [ Sign-up / Services ] [ Login ]

Current weather by "City, St" or "zip code"  

 

Advertise Here

Hazardous Weather Conditions

No active alerts for HOUSTON, TEXAS

Current Conditions: HOUSTON, TEXAS

Fair


75.0 F

Last Updated on Oct 23 2017, 12:53 pm CDT
Humidity: 29%
Wind Speed: NE 3.5 mph
Barometer 30.14 in
Dewpoint: 41.0 F
Visibility: 10.00 mi
Precip: --
Heat Index: NA
Wind Chill: NA
Current conditions at:

Houston, Hooks Memorial Airport, TX (KDWH)

Lat: 30.06 Lon: -95.556

Local Radar Image active severe weather and emergency alerts image image weather storm and storm spotter reports image weather observation monitoring service image
Local
Radar
Active
Alerts
Storm Reports Weather
Monitoring

Weather Alert Notification Services


ialert severe weather and emergency alerts by text message and email ialert daily weather forecast by email and text message service ialert real-time weather-observation monitoring and alert notification service ialert storm report monitoring alert notification

Observation History for HOUSTON, TEXAS


Time Wind
(mph)
Vis
(mi)
Weather Precip (in) Temperature (F) Relative
Humidity
Wind
Chill
(°F)
Heat
Index
(°F)
Pressure
Air Dwpt altimeter
(in)
sea level
(mb)
12:53 pm CDT NE 3.5 10.00 Fair -- 75.0 41.0 29% NA NA 30.14 1020.5
11:53 am CDT 3.5 10.00 Fair -- 71.0 45.0 39% NA NA 30.16 1021.0
10:53 am CDT N 0.0 10.00 Fair -- 68.0 48.9 51% NA NA 30.16 1021.2
9:53 am CDT N 0.0 10.00 Fair -- 63.0 51.1 65% NA NA 30.16 1021.2
8:53 am CDT N 0.0 10.00 Fair -- 58.0 51.1 78% NA NA 30.15 1020.9
7:53 am CDT N 0.0 10.00 Fair -- 50.0 48.0 93% NA NA 30.14 1020.6
6:53 am CDT N 0.0 10.00 Fair -- 50.0 46.9 89% NA NA 30.14 1020.4
5:53 am CDT N 5.8 10.00 Fair -- 53.0 48.0 83% 51 NA 30.13 1020.0
4:53 am CDT N 3.5 10.00 Fair -- 52.0 50.0 93% NA NA 30.13 1020.2
3:53 am CDT N 0.0 10.00 Fair -- 51.0 48.9 92% NA NA 30.14 1020.3
2:53 am CDT N 0.0 10.00 Fair -- 51.0 48.9 92% NA NA 30.14 1020.6
1:53 am CDT N 0.0 10.00 Fair -- 54.0 50.0 87% NA NA 30.14 1020.6
12:53 am CDT NW 4.6 10.00 Fair -- 57.0 50.0 78% 57 NA 30.15 1020.7
11:53 pm CDT NW 3.5 10.00 Fair -- 59.0 52.0 78% NA NA 30.15 1020.7
10:53 pm CDT NW 4.6 10.00 Fair -- 61.0 53.1 75% 61 NA 30.14 1020.6
9:53 pm CDT N 4.6 10.00 Fair -- 64.0 53.1 68% NA NA 30.13 1020.2
8:53 pm CDT N 0.0 10.00 Fair -- 61.0 59.0 93% NA NA 30.12 1019.7
7:53 pm CDT W 3.5 10.00 Fair -- 62.0 59.0 90% NA NA 30.10 1019.1
6:53 pm CDT N 0.0 10.00 Fair -- 67.0 59.0 76% NA NA 30.08 1018.4
5:53 pm CDT N 5.8 10.00 Fair -- 74.0 57.9 57% NA NA 30.07 1018.1
4:53 pm CDT N 8.1 10.00 Mostly Cloudy -- 75.0 59.0 58% NA NA 30.07 1018.0
3:53 pm CDT N 9.2 10.00 Mostly Cloudy -- 74.0 60.1 62% NA NA 30.08 1018.4
2:53 pm CDT 5.8 10.00 Overcast -- 71.0 60.1 68% NA NA 30.09 1018.6
1:53 pm CDT N 0.0 10.00 Mostly Cloudy -- 70.0 61.0 73% NA NA 30.10 1019.0

Regional Weather Observation:


John Dunn Helistop, TX (KMCJ)

Fair
77.0 F

Houston, Houston Hobby Airport, TX (KHOU)

Fair
76.0 F

Houston Southwest Airport, TX (KAXH)

Fair
74.0 F

Conroe, Montgomery County Airport, TX (KCXO)

Fair
74.0 F

Houston, Pearland Regional Airport, TX (KLVJ)

Fair
75.0 F

Cleveland, TX (K6R3)

Fair
73.0 F

Advertise Here


Advertise Here